This is the latest recevied weather packets stored in our database for station/object KN6WGU. If no packets are shown the sender has not sent any weather packets the latest 10 day(s).
| Time | Temp. | Humidity | Pressure | Rain* | Wind** | Luminosity | Snow |
|---|---|---|---|---|---|---|---|
| 1777329531 | 21.67° C | 48% | 1007.7 hPa | 0 mm | - | 36 W/m² | - |
| 1777329229 | 21.67° C | 48% | 1007.7 hPa | 0 mm | - | 38 W/m² | - |
| 1777328926 | 22.22° C | 48% | 1007.7 hPa | 0 mm | - | 43 W/m² | - |
| 1777328624 | 22.22° C | 47% | 1007.6 hPa | 0 mm | - | 51 W/m² | - |
| 1777328322 | 22.22° C | 47% | 1007.4 hPa | 0 mm | - | 58 W/m² | - |
| 1777328020 | 22.22° C | 47% | 1007.6 hPa | 0 mm | - | 67 W/m² | - |
| 1777327718 | 22.22° C | 48% | 1007.5 hPa | 0 mm | - | 78 W/m² | - |
| 1777327415 | 22.22° C | 47% | 1007.4 hPa | 0 mm | - | 89 W/m² | - |
| 1777327112 | 22.22° C | 45% | 1007.6 hPa | 0 mm | - | 101 W/m² | - |
| 1777326808 | 22.22° C | 45% | 1007.9 hPa | 0 mm | - | 110 W/m² | - |
| 1777326506 | 22.22° C | 46% | 1007.7 hPa | 0 mm | - | 114 W/m² | - |
| 1777326203 | 22.78° C | 45% | 1007.8 hPa | 0 mm | - | 117 W/m² | - |
| 1777325901 | 22.78° C | 45% | 1007.7 hPa | 0 mm | - | 119 W/m² | - |
| 1777325599 | 22.78° C | 46% | 1007.6 hPa | 0 mm | - | 123 W/m² | - |
| 1777325297 | 22.78° C | 46% | 1007.6 hPa | 0 mm | - | 129 W/m² | - |
| 1777324995 | 22.78° C | 44% | 1007.6 hPa | 0 mm | - | 137 W/m² | - |
| 1777324691 | 22.78° C | 43% | 1007.5 hPa | 0 mm | - | 156 W/m² | - |
| 1777324389 | 22.78° C | 45% | 1007.6 hPa | 0 mm | - | 171 W/m² | - |
| 1777324086 | 22.78° C | 45% | 1007.6 hPa | 0 mm | - | 181 W/m² | - |
| 1777323783 | 22.78° C | 44% | 1007.8 hPa | 0 mm | - | 188 W/m² | - |
| 1777323480 | 22.78° C | 43% | 1007.8 hPa | 0 mm | - | 196 W/m² | - |
| 1777323178 | 22.78° C | 45% | 1008.1 hPa | 0 mm | - | 202 W/m² | - |
| 1777322875 | 23.33° C | 46% | 1008 hPa | 0 mm | - | 211 W/m² | - |
| 1777322574 | 23.33° C | 45% | 1008 hPa | 0 mm | - | 225 W/m² | - |
| 1777322270 | 22.78° C | 47% | 1008 hPa | 0 mm | - | 225 W/m² | - |
* Rain latest hour (hover to see other rain measurements)
** Current wind speed in m/s (hover to see current wind gust speed)